STARLINK-32173 (60586 NORAD) Tracking and Keplerian Element Data

This shows tracking and keplerian element data for the satellite.

Feedback or suggestion? Click here.




ElementValue
Catalog60586
NameSTARLINK-32173
Epoch Orbit951
Epoch Day286.83859509
Epoch Year2024
RAAN169.7311
Inclination53.1598
Eccentricity0.0001081
Argument of Perigee65.7249
Mean Anonmoly294.3868
Mean Motion15.39637461
Decay Rate0.00014534
L11 60586U 24150D 24286.83859509 .00014534 00000+0 37242-3 0 9993
L22 60586 53.1598 169.7311 0001081 65.7249 294.3868 15.39637461 9519



Live tracking and technical data element details for STARLINK-32173 (NORAD 60586). STARLINK-32173 can be tracked NOW for your location showing map with azimuth and elevation plus other details from your city location.







IsCatalogInMostPopularTable: catalog: 60586, numindb: 8
Update: records affected: 1



GetName: 60586 STARLINK-32173

Hit Count: updated at: Tue, 03 Dec 2024 01:29:40 GMT